TimeEST,TemperatureF,Dew PointF,Humidity,Sea Level PressureIn,VisibilityMPH,Wind Direction,Wind SpeedMPH,Gust SpeedMPH,PrecipitationIn,Events,Conditions,WindDirDegrees,DateUTC
12:53 AM,44.1,35.1,71,30.10,10.0,Calm,Calm,-,N/A,,Clear,0,2013-02-04 05:53:00
1:53 AM,42.1,36.0,79,30.10,10.0,Calm,Calm,-,N/A,,Clear,0,2013-02-04 06:53:00
2:53 AM,42.1,36.0,79,30.09,10.0,Calm,Calm,-,N/A,,Clear,0,2013-02-04 07:53:00
3:53 AM,43.0,36.0,76,30.10,10.0,Calm,Calm,-,N/A,,Clear,0,2013-02-04 08:53:00
5:53 AM,41.0,35.1,79,30.12,10.0,Calm,Calm,-,N/A,,Clear,0,2013-02-04 10:53:00
6:53 AM,39.9,35.1,83,30.14,10.0,Calm,Calm,-,N/A,,Clear,0,2013-02-04 11:53:00
7:53 AM,41.0,36.0,82,30.14,10.0,Calm,Calm,-,N/A,,Clear,0,2013-02-04 12:53:00
8:53 AM,48.9,42.1,77,30.15,10.0,Calm,Calm,-,N/A,,Clear,0,2013-02-04 13:53:00
9:53 AM,57.0,36.0,45,30.14,10.0,ENE,4.6,-,N/A,,Clear,60,2013-02-04 14:53:00
10:53 AM,60.1,32.0,35,30.13,10.0,ENE,5.8,-,N/A,,Clear,60,2013-02-04 15:53:00
11:53 AM,64.0,34.0,33,30.12,10.0,Variable,4.6,-,N/A,,Clear,0,2013-02-04 16:53:00
12:53 PM,63.0,37.9,40,30.11,10.0,Variable,3.5,-,N/A,,Clear,0,2013-02-04 17:53:00
1:53 PM,61.0,42.1,50,30.08,10.0,NE,6.9,-,N/A,,Clear,50,2013-02-04 18:53:00
2:53 PM,62.1,41.0,46,30.09,10.0,North,3.5,-,N/A,,Clear,360,2013-02-04 19:53:00
3:53 PM,61.0,41.0,48,30.09,10.0,East,4.6,-,N/A,,Clear,90,2013-02-04 20:53:00
4:53 PM,60.1,41.0,49,30.09,10.0,East,4.6,-,N/A,,Clear,90,2013-02-04 21:53:00
5:53 PM,57.9,43.0,58,30.08,10.0,ESE,3.5,-,N/A,,Clear,110,2013-02-04 22:53:00
6:53 PM,54.0,45.0,72,30.08,10.0,Calm,Calm,-,N/A,,Clear,0,2013-02-04 23:53:00
7:53 PM,54.0,45.0,72,30.08,10.0,Calm,Calm,-,N/A,,Clear,0,2013-02-05 00:53:00
8:53 PM,53.1,44.1,71,30.09,10.0,Calm,Calm,-,N/A,,Clear,0,2013-02-05 01:53:00
9:53 PM,53.1,45.0,74,30.09,10.0,Calm,Calm,-,N/A,,Clear,0,2013-02-05 02:53:00
10:53 PM,52.0,45.0,77,30.09,10.0,Calm,Calm,-,N/A,,Clear,0,2013-02-05 03:53:00
11:53 PM,53.1,44.1,71,30.06,10.0,Calm,Calm,-,N/A,,Clear,0,2013-02-05 04:53:00